Regional Weather Roundup
Issued by NWS

Home | Current Version | Previous Version | Text Only | Print | Product List | Glossary Off
Versions: 1 2 3 4 5 6 7 8 9 10 11 12 13 14 15 16 17 18 19 20 21 22 23 24 25 26 27 28 29 30 31 32 33 34 35 36 37 38 39 40 41 42 43 44 45 46 47 48 49 50

000
ASUS43 KDMX 171007
RWRIA

WEATHER ROUNDUP FOR IOWA
NATIONAL WEATHER SERVICE DES MOINES IA
500 AM CDT FRI APR 17 2015

NOTE: "FAIR" INDICATES FEW OR NO CLOUDS BELOW 12,000 FEET WITH NO
SIGNIFICANT WEATHER AND/OR OBSTRUCTIONS TO VISIBILITY.

* - THESE STATIONS ARE NOT NWS STATIONS...THUS NOT UNDER NWS
QUALITY CONTROL.  THEY ALSO DO NOT REPORT WEATHER SUCH
AS PRECIPITATION OR FOG.

IAZ001>003-012>014-020>022-031>034-043>046-171100-
   NORTHWEST IOWA

CITY           SKY/WX    TMP DP  RH WIND       PRES   REMARKS
CARROLL *      CLOUDY    48  46  93 CALM      30.09S
CHEROKEE *     CLEAR     46  46 100 CALM      30.11S
DENISON *      CLOUDY    48  48 100 CALM      30.08S FOG
LE MARS *      CLEAR     45  45 100 CALM      30.12S FOG
ORANGE CITY *  CLEAR     52  46  82 N8        30.11S
SHELDON *      CLEAR     45  45 100 N7        30.10S
SIOUX CITY     MOCLDY    50  46  86 N6        30.10F
SPENCER        CLEAR     43  41  93 NW5       30.10S
STORM LAKE *   CLEAR     55  46  71 N6        30.11S
$$

IAZ055>058-069>071-079>083-090>094-171100-
   SOUTHWEST IOWA

CITY           SKY/WX    TMP DP  RH WIND       PRES   REMARKS
ATLANTIC *     CLEAR     48  48 100 CALM      30.10R
AUDUBON *      CLEAR     46  45  93 CALM      30.11S
CLARINDA *     CLEAR     52  52 100 N5        30.08F
COUNCIL BLFS * CLOUDY    55  54  94 N6        30.10R
CRESTON *      PTCLDY    55  52  88 NE5       30.08F
HARLAN  *      CLEAR     48  48 100 CALM      30.13R FOG
LAMONI         PTCLDY    56  51  84 NE3       30.06F
RED OAK *      MOCLDY    52  50  93 N6        30.08S
SHENANDOAH *   CLEAR     54  52  94 NE6       30.07F
$$

IAZ047>049-059>061-072>074-084-171100-
   CENTRAL IOWA

CITY           SKY/WX    TMP DP  RH WIND       PRES   REMARKS
AMES           MOCLDY    49  45  86 W5        30.08S
ANKENY *       CLEAR     48  48 100 CALM      30.09R
CHARITON *     CLOUDY    55  52  88 CALM      30.07F
DES MOINES     PTCLDY    54  49  83 CALM      30.09R
GRINNELL*      CLEAR     54  48  82 W3        30.09R
KNOXVILLE *    PTCLDY    52  50  93 NW5       30.07S
MARSHALLTOWN   CLEAR     50  47  89 CALM      30.07S
PELLA *        MOCLDY    52  52 100 CALM      30.09S
PERRY *          N/A     48  45  87 W6        30.10R
$$

IAZ004>006-015-016-023>025-035-036-171100-
   NORTH CENTRAL IOWA

CITY           SKY/WX    TMP DP  RH WIND       PRES   REMARKS
ALGONA *       CLEAR     48  46  93 W3        30.09S
CLARION *      CLEAR     46  46 100 CALM      30.09R
ESTHERVILLE    CLEAR     45  40  82 NW6       30.10R
FORT DODGE *   PTCLDY    46  43  87 CALM      30.10R
MASON CITY     CLEAR     45  42  89 MISG      30.09S
FOREST CITY *  CLEAR     41  41 100 CALM      30.08S FOG
IOWA FALLS *     N/A     46  43  87 CALM      30.09S
$$

IAZ007>011-017>019-026>030-037>042-050>054-066-171100-
   NORTHEAST IOWA

CITY           SKY/WX    TMP DP  RH WIND       PRES   REMARKS
CEDAR RAPIDS   CLEAR     49  47  93 CALM      30.06S
CHARLES CITY * CLEAR     52  50  93 N3        30.08F
CLINTON *      CLEAR     48  39  71 NW3       30.09S
DECORAH *      PTCLDY    50  45  81 CALM      30.06F
DUBUQUE        CLEAR     51  44  77 S5        30.07F
MONTICELLO *   PTCLDY    48  48 100 CALM      30.06F
OELWEIN *      PTCLDY    54  48  82 CALM      30.08S
WATERLOO       CLEAR     48  44  86 CALM      30.06F
$$

IAZ064-065-067-068-078-171100-
   EAST CENTRAL IOWA

CITY           SKY/WX    TMP DP  RH WIND       PRES   REMARKS
DAVENPORT      CLEAR     50  41  71 N5        30.07F
IOWA CITY      CLEAR     49  45  86 W3        30.08S
MT. PLEASANT * CLEAR     52  48  87 N6        30.07S
MUSCATINE *    CLEAR     50  46  87 CALM      30.07S
QUAD CITIES    CLEAR     47  42  83 CALM      30.06F
$$

IAZ062-063-075>077-085>089-095>099-171100-
   SOUTHEAST IOWA

CITY           SKY/WX    TMP DP  RH WIND       PRES   REMARKS
BURLINGTON     CLEAR     51  47  86 CALM      30.05S
FAIRFIELD *    CLEAR     50  46  87 NE5       30.07S
FORT MADISON * CLEAR     54  48  82 CALM      30.07R
KEOKUK *       CLEAR     52  50  93 CALM      30.06R
OSKALOOSA *      N/A     50  46  87 N5        30.08R
CENTERVILLE *  CLEAR     50  50 100 N3        30.08F
OTTUMWA        CLOUDY    56  51  84 NW3       30.07R
WASHINGTON *   CLEAR     52  52 100 CALM      30.07R
$$

ABBREVIATIONS USED IN REMARKS
   TC - TEMPERATURES IN CELSIUS
  WCI - WIND CHILL INDEX
   HX - HEAT INDEX
  VSB - VISIBILITY
$$




USA.gov is the U.S. government's official web portal to all federal, state and local government web resources and services.